Location: Leiter
(44.7178°N, 106.2687°W)
Time: 14:54:15
(UTC+00:00)

DX 1 - Visible Passes

Search period start: 02 July 2022 00:00
Search period end: 12 July 2022 00:00
Orbit: 618 x 628 km, 98.4° (Epoch: 02 July)

Date Brightness Start Highest point End Pass type
(mag) Time Alt. Az. Time Alt. Az. Time Alt. Az.
02 Jul ? 03:31:57 10° NE 03:35:36 26° E 03:39:14 10° SSE visible
02 Jul ? 05:07:50 10° N 05:11:45 32° WNW 05:15:38 10° SW visible
03 Jul ? 03:49:52 10° NNE 03:53:59 39° E 03:58:03 10° SSE visible
03 Jul ? 05:26:29 10° NNW 05:29:52 22° WNW 05:33:15 10° WSW visible
04 Jul ? 04:07:58 10° NNE 04:12:18 60° ESE 04:16:37 10° S visible
04 Jul ? 05:45:23 10° NNW 05:47:57 16° WNW 05:50:31 10° W visible
05 Jul ? 04:26:11 10° NNE 04:30:35 87° WNW 04:34:56 10° SSW visible
05 Jul ? 06:05:05 10° NW 06:05:58 11° WNW 06:06:53 10° WNW visible
06 Jul ? 04:44:31 10° N 04:48:49 56° WNW 04:53:05 10° SSW visible
07 Jul ? 03:27:21 10° NE 03:30:47 22° E 03:34:11 10° SE visible
07 Jul ? 05:02:58 10° N 05:07:00 37° WNW 05:11:00 10° SW visible
08 Jul ? 03:45:11 10° NNE 03:49:11 33° E 03:53:07 10° SSE visible
08 Jul ? 05:21:34 10° N 05:25:08 25° WNW 05:28:42 10° WSW visible
09 Jul ? 04:03:13 10° NNE 04:07:31 52° E 04:11:45 10° S visible
09 Jul ? 05:40:21 10° NNW 05:43:14 18° WNW 05:46:06 10° WSW visible
10 Jul ? 04:21:24 10° NNE 04:25:48 81° ESE 04:30:08 10° SSW visible
10 Jul ? 05:59:36 10° NW 06:01:16 12° WNW 06:02:57 10° W visible
11 Jul ? 04:39:42 10° N 04:44:02 66° WNW 04:48:20 10° SSW visible
